| time (UTC) | temp F | wind direction | speed MPH | gust MPH | rain 1hr in | rain 24hr in | rain mn in | humidity % | barometer mb |
| 20260506114547 | 52 | 107 | 2.0 | 5.0 | 0.00 | 0.00 | 0.00 | 62 | |
| 20260506113522 | 51 | 160 | 3.0 | 5.0 | 0.00 | 0.00 | 0.00 | 64 | |
| 20260506112530 | 50 | 8 | 4.0 | 8.0 | 0.00 | 0.00 | 0.00 | 68 | |
| 20260506111527 | 50 | 40 | 2.0 | 5.0 | 0.00 | 0.00 | 0.00 | 70 | 1004.0 |
| 20260506110527 | 50 | 73 | 2.0 | 5.0 | 0.00 | 0.00 | 0.00 | 71 | 1004.0 |
| 20260506105527 | 50 | 67 | 2.0 | 2.0 | 0.00 | 0.00 | 0.00 | 71 | 1004.0 |
| 20260506104527 | 51 | 11 | 3.0 | 10.0 | 0.00 | 0.00 | 0.00 | 70 | 1003.7 |
| 20260506103522 | 51 | 92 | 1.0 | 2.0 | 0.00 | 0.00 | 0.00 | 69 | 1003.7 |
| 20260506102530 | 52 | 59 | 2.0 | 5.0 | 0.00 | 0.00 | 0.00 | 70 | 1003.7 |
| 20260506101547 | 53 | 315 | 3.0 | 5.0 | 0.00 | 0.00 | 0.00 | 68 | 1003.7 |
| 20260506100527 | 53 | 85 | 2.0 | 5.0 | 0.00 | 0.00 | 0.00 | 67 | 1003.9 |
| 20260506095522 | 53 | 34 | 6.0 | 13.0 | 0.00 | 0.00 | 0.00 | 63 | 1003.7 |
| 20260506094530 | 53 | 28 | 2.0 | 5.0 | 0.00 | 0.00 | 0.00 | 67 | 1003.9 |
| 20260506093547 | 54 | 351 | 3.0 | 5.0 | 0.00 | 0.00 | 0.00 | 62 | 1003.7 |
| 20260506092527 | 53 | 45 | 2.0 | 2.0 | 0.00 | 0.00 | 0.00 | 68 | 1003.8 |
| 20260506091542 | 52 | 61 | 2.0 | 2.0 | 0.00 | 0.00 | 0.00 | 64 | 1004.0 |
| 20260506090550 | 51 | 0.0 | 0.0 | 0.00 | 0.00 | 0.00 | 69 | 1004.0 | |
| 20260506085527 | 52 | 59 | 0.0 | 2.0 | 0.00 | 0.00 | 0.00 | 72 | 1004.0 |
| 20260506084527 | 52 | 4 | 3.0 | 8.0 | 0.00 | 0.00 | 0.00 | 69 | 1004.0 |
| 20260506083522 | 52 | 68 | 3.0 | 8.0 | 0.00 | 0.00 | 0.00 | 69 | 1003.7 |
| 20260506082530 | 52 | 66 | 1.0 | 2.0 | 0.00 | 0.00 | 0.00 | 68 | 1004.0 |
| 20260506081527 | 51 | 98 | 1.0 | 2.0 | 0.00 | 0.00 | 0.00 | 71 | 1004.0 |
| 20260506080527 | 51 | 51 | 2.0 | 8.0 | 0.00 | 0.00 | 0.00 | 69 | 1004.0 |
| 20260506073526 | 50 | 14 | 1.0 | 5.0 | 0.00 | 0.00 | 0.00 | 72 | 1004.0 |
| 20260506072527 | 49 | 37 | 1.0 | 2.0 | 0.00 | 0.00 | 0.00 | 73 | 1004.0 |
| 20260506071522 | 48 | 319 | 4.0 | 8.0 | 0.00 | 0.00 | 0.00 | 74 | 1004.0 |
| 20260506070610 | 47 | 312 | 2.0 | 5.0 | 0.00 | 0.00 | 0.00 | 75 | 1003.8 |
| 20260506061527 | 42 | 32 | 0.0 | 2.0 | 0.00 | 0.00 | 0.00 | 82 | 1003.8 |
| 20260506060547 | 41 | 355 | 1.0 | 2.0 | 0.00 | 0.00 | 0.00 | 85 | 1003.6 |
| 20260506051027 | 40 | 10 | 1.0 | 2.0 | 0.00 | 0.00 | 0.00 | 89 | 1003.4 |
| 20260506045017 | 39 | 0.0 | 0.0 | 0.00 | 0.00 | 0.00 | 90 | 1003.2 | |
| 20260506044026 | 39 | 61 | 0.0 | 2.0 | 0.00 | 0.00 | 0.00 | 90 | 1003.2 |
| 20260506043027 | 39 | 0.0 | 0.0 | 0.00 | 0.00 | 0.00 | 90 | 1003.3 | |
| 20260506042027 | 40 | 0.0 | 0.0 | 0.00 | 0.00 | 0.00 | 90 | 1003.4 | |
| 20260506041047 | 40 | 359 | 1.0 | 2.0 | 0.00 | 0.00 | 0.00 | 89 | 1003.3 |
| 20260506040052 | 41 | 0.0 | 0.0 | 0.00 | 0.00 | 0.00 | 89 | 1003.3 | |
| 20260506035033 | 42 | 28 | 1.0 | 2.0 | 0.00 | 0.00 | 0.00 | 89 | 1003.3 |
| 20260506034026 | 43 | 0.0 | 0.0 | 0.00 | 0.00 | 0.00 | 89 | 1003.3 | |
| 20260506033127 | 43 | 0.0 | 0.0 | 0.00 | 0.00 | 0.00 | 89 | 1003.3 | |
| 20260506032727 | 43 | 339 | 2.0 | 5.0 | 0.00 | 0.00 | 0.00 | 89 | 1003.7 |
| 20260506031626 | 43 | 0.0 | 0.0 | 0.00 | 0.00 | 0.00 | 88 | 1003.3 | |
| 20260506030027 | 44 | 0.0 | 0.0 | 0.00 | 0.00 | 0.00 | 88 | 1003.3 | |
| 20260506024827 | 44 | 0.0 | 0.0 | 0.00 | 0.00 | 0.00 | 88 | 1003.3 | |
| 20260506023447 | 44 | 0.0 | 0.0 | 0.00 | 0.00 | 0.00 | 88 | 1003.3 | |
| 20260506022442 | 45 | 0.0 | 0.0 | 0.00 | 0.00 | 0.00 | 88 | 1003.4 | |
| 20260506021626 | 45 | 279 | 2.0 | 2.0 | 0.00 | 0.00 | 0.00 | 87 | 1003.4 |
| 20260506014326 | 45 | 49 | 2.0 | 2.0 | 0.00 | 0.00 | 0.00 | 88 | 1003.7 |
| 20260506012930 | 45 | 0.0 | 0.0 | 0.00 | 0.00 | 0.00 | 87 | 1003.7 | |
| 20260506012441 | 45 | 0.0 | 0.0 | 0.00 | 0.00 | 0.00 | 87 | 1003.7 | |
| 20260506010127 | 45 | 63 | 0.0 | 2.0 | 0.00 | 0.00 | 0.00 | 86 | 1004.1 |
| 20260506003225 | 45 | 0.0 | 0.0 | 0.00 | 0.00 | 0.00 | 85 | 1004.1 | |
| 20260506002327 | 45 | 0.0 | 0.0 | 0.00 | 0.00 | 0.00 | 85 | 1004.1 | |
| 20260506001242 | 45 | 0.0 | 0.0 | 0.00 | 0.00 | 0.00 | 84 | 1004.1 | |
| 20260505233227 | 46 | 0.0 | 0.0 | 0.00 | 0.00 | 0.00 | 83 | 1004.1 | |
| 20260505232810 | 0 | 0.0 | 0.0 | 0.00 | 0.00 | 0.00 | |||
| 20260505230002 | 0 | 0.0 | 0.0 | 0.00 | 0.00 | 0.00 | |||
| 20260505222727 | 48 | 56 | 2.0 | 2.0 | 0.00 | 0.00 | 0.00 | 81 | 1004.5 |
| 20260505221833 | 48 | 0.0 | 0.0 | 0.00 | 0.00 | 0.00 | 80 | 1004.5 | |
| 20260505220546 | 48 | 0.0 | 0.0 | 0.00 | 0.00 | 0.00 | 80 | 1004.5 | |
| 20260505215027 | 48 | 0.0 | 0.0 | 0.00 | 0.00 | 0.00 | 78 | 1004.4 | |
| 20260505213702 | 48 | 11 | 3.0 | 5.0 | 0.00 | 0.00 | 0.00 | 77 | 1004.4 |
| 20260505212425 | 48 | 142 | 1.0 | 2.0 | 0.00 | 0.00 | 0.00 | 76 | 1004.4 |
| 20260505210126 | 48 | 0.0 | 0.0 | 0.00 | 0.00 | 0.00 | 76 | 1004.4 | |
| 20260505203557 | 48 | 29 | 0.0 | 2.0 | 0.00 | 0.00 | 0.00 | 75 | 1004.1 |
| 20260505202705 | 49 | 0.0 | 0.0 | 0.00 | 0.00 | 0.00 | 75 | 1004.1 | |
| 20260505201526 | 49 | 61 | 3.0 | 5.0 | 0.00 | 0.00 | 0.00 | 73 | 1004.1 |
| 20260505200425 | 49 | 328 | 3.0 | 5.0 | 0.00 | 0.00 | 0.00 | 74 | 1003.9 |
| 20260505195628 | 50 | 0.0 | 0.0 | 0.00 | 0.00 | 0.00 | 77 | 1004.1 | |
| 20260505194530 | 50 | 55 | 1.0 | 2.0 | 0.00 | 0.00 | 0.00 | 78 | 1003.7 |
| 20260505193427 | 50 | 22 | 5.0 | 8.0 | 0.00 | 0.00 | 0.00 | 78 | 1003.7 |
| 20260505192445 | 50 | 76 | 3.0 | 8.0 | 0.00 | 0.00 | 0.00 | 77 | 1003.6 |
| 20260505191427 | 50 | 353 | 3.0 | 5.0 | 0.00 | 0.00 | 0.00 | 77 | 1003.4 |
| 20260505190425 | 50 | 39 | 2.0 | 5.0 | 0.00 | 0.00 | 0.00 | 77 | 1003.4 |
| 20260505185417 | 51 | 0.0 | 0.0 | 0.00 | 0.00 | 0.00 | 77 | 1003.4 | |
| 20260505184446 | 51 | 12 | 4.0 | 8.0 | 0.00 | 0.00 | 0.00 | 77 | 1003.4 |
| 20260505183426 | 52 | 291 | 1.0 | 5.0 | 0.00 | 0.00 | 0.00 | 76 | 1003.0 |
| 20260505182445 | 52 | 8 | 2.0 | 5.0 | 0.00 | 0.00 | 0.00 | 72 | 1003.0 |
| 20260505181417 | 52 | 29 | 1.0 | 2.0 | 0.00 | 0.00 | 0.00 | 72 | 1003.0 |
| 20260505180426 | 52 | 40 | 2.0 | 5.0 | 0.00 | 0.00 | 0.00 | 73 | 1003.0 |
| 20260505175426 | 52 | 5 | 3.0 | 5.0 | 0.00 | 0.00 | 0.00 | 73 | 1003.0 |
| 20260505174425 | 53 | 25 | 4.0 | 10.0 | 0.00 | 0.00 | 0.00 | 76 | 1003.0 |
| 20260505173326 | 53 | 358 | 3.0 | 5.0 | 0.00 | 0.00 | 0.00 | 76 | 1003.0 |
| 20260505172321 | 53 | 45 | 3.0 | 5.0 | 0.00 | 0.00 | 0.00 | 75 | 1003.0 |
| 20260505171333 | 53 | 31 | 4.0 | 8.0 | 0.00 | 0.00 | 0.00 | 77 | 1002.6 |
| 20260505170129 | 54 | 37 | 3.0 | 8.0 | 0.00 | 0.00 | 0.00 | 77 | 1002.7 |
| 20260505165126 | 54 | 46 | 1.0 | 2.0 | 0.00 | 0.00 | 0.00 | 77 | 1002.7 |
| 20260505164129 | 54 | 32 | 0.0 | 2.0 | 0.00 | 0.00 | 0.00 | 76 | 1002.8 |
| 20260505163121 | 54 | 347 | 3.0 | 5.0 | 0.00 | 0.00 | 0.00 | 75 | 1002.7 |
| 20260505162129 | 54 | 57 | 4.0 | 8.0 | 0.00 | 0.00 | 0.00 | 73 | 1002.7 |
| 20260505161121 | 55 | 0.0 | 0.0 | 0.00 | 0.00 | 0.00 | 74 | 1002.7 | |
| 20260505160149 | 55 | 71 | 1.0 | 2.0 | 0.00 | 0.00 | 0.00 | 74 | 1002.7 |
| 20260505153141 | 56 | 41 | 3.0 | 8.0 | 0.00 | 0.00 | 0.00 | 72 | 1002.4 |
| 20260505152129 | 57 | 119 | 4.0 | 8.0 | 0.00 | 0.00 | 0.00 | 65 | 1002.4 |
| 20260505151126 | 57 | 341 | 2.0 | 5.0 | 0.00 | 0.00 | 0.00 | 66 | 1002.2 |
| 20260505150126 | 57 | 43 | 3.0 | 8.0 | 0.00 | 0.00 | 0.00 | 63 | 1002.4 |
| 20260505140129 | 57 | 316 | 2.0 | 5.0 | 0.00 | 0.00 | 0.00 | 60 | 1002.1 |
| 20260505130129 | 58 | 42 | 3.0 | 5.0 | 0.00 | 0.00 | 0.00 | 60 | 1002.3 |
| 20260505124129 | 58 | 52 | 1.0 | 2.0 | 0.00 | 0.00 | 0.00 | 60 | 1002.1 |
| 20260505123126 | 58 | 0.0 | 0.0 | 0.00 | 0.00 | 0.00 | 61 | 1001.9 | |
| 20260505122126 | 59 | 336 | 2.0 | 5.0 | 0.00 | 0.00 | 0.00 | 59 | 1002.1 |
| 20260505121141 | 59 | 292 | 2.0 | 2.0 | 0.00 | 0.00 | 0.00 | 59 | 1002.1 |
| 20260505120154 | 59 | 288 | 5.0 | 8.0 | 0.00 | 0.00 | 0.00 | 58 | 1002.1 |
| 20260505115126 | 59 | 53 | 0.0 | 2.0 | 0.00 | 0.00 | 0.00 | 58 | 1002.1 |